Regional Weather Roundup
Issued by NWS

Home | Current Version | Previous Version | Graphics & Text | Print | Product List | Glossary On
Versions: 1 2 3 4 5 6 7 8 9 10 11 12 13 14 15 16 17 18 19 20 21 22 23 24 25 26 27 28 29 30 31 32 33 34 35 36 37 38 39 40 41 42 43 44 45 46 47 48 49 50
000
ASUS43 KFSD 150802
RWRSD

WEATHER ROUNDUP FOR SOUTH DAKOTA
NATIONAL WEATHER SERVICE SIOUX FALLS SD
300 AM CDT MON SEP 15 2014

NOTE: "FAIR" INDICATES FEW OR NO CLOUDS BELOW 12,000 FEET WITH NO
SIGNIFICANT WEATHER AND/OR OBSTRUCTIONS TO VISIBILITY.


SDZ001>005-009-010-012>017-150900-
NORTHWEST AND NORTH CENTRAL SOUTH DAKOTA

CITY           SKY/WX    TMP DP  RH WIND       PRES   REMARKS
FAITH            N/A     45  38  76 E3        30.24S
MOBRIDGE       PTCLDY    40  38  93 N5        30.20S
$$

SDZ012>016-024>037-041>051-057-063-072>074-150900-
SOUTHWEST AND SOUTH CENTRAL SOUTH DAKOTA

CITY           SKY/WX    TMP DP  RH WIND       PRES   REMARKS
RAPID CTY ARPT CLEAR     36  33  89 CALM      30.25R
PIERRE         CLOUDY    50  40  68 N9        30.22R
CUSTER         CLEAR     36  34  92 NW3       30.26R
ELLSWORTH AFB  CLEAR     44  38  80 SE3       30.24R
PHILIP         CLEAR     40  38  93 N7        30.24R
PINE RIDGE     CLEAR     34  33  96 E3        30.25R
WINNER         CLOUDY    50  44  80 NW7       30.21R
$$

SDZ004>011-016>023-039-040-150900-
NORTHEAST SOUTH DAKOTA

CITY           SKY/WX    TMP DP  RH WIND       PRES   REMARKS
ABERDEEN       CLOUDY    45  45 100 W5        30.20S
WATERTOWN      LGT RAIN  47  43  86 N9        30.19R
SISSETON         N/A     45  43  93 NW3       30.18R
$$

SDZ017-020-022-023-036>040-048>070-150900-
SOUTHEAST SOUTH DAKOTA

CITY           SKY/WX    TMP DP  RH WIND       PRES   REMARKS
SIOUX FALLS    RAIN      49  47  93 N7        30.16R FOG
HURON          CLOUDY    49  45  86 N3        30.20R
CHAMBERLAIN    CLOUDY    51  43  74 N5        30.20R
MITCHELL       LGT RAIN  49  47  93 N5        30.20R
YANKTON        CLOUDY    52  45  76 N9        30.13S
$$

ABBREVIATIONS USED IN REMARKS
   TC - TEMPERATURE IN CELSIUS
  WCI - WIND CHILL INDEX
   HX - HEAT INDEX
  VSB - VISIBILITY



USA.gov is the U.S. government's official web portal to all federal, state and local government web resources and services.